Big Rapids, MI

5:27 PM EDT on August 24, 2019 (GMT -0400)
Roben-Hood

Weather History for KRQB - May, 2019

Change the Weather History Date:

Tuesday, May 28, 2019

  Actual Average Record
Temperature  
Mean Temperature 56 °F -  
Max Temperature 61 °F 73 °F 90 °F (1978)
Min Temperature 51 °F 46 °F 26 °F (2008)
Degree Days  
Heating Degree Days 9    
Growing Degree Days 6 (Base 50)    
Moisture  
Dew Point 53 °F    
Average Humidity 90    
Maximum Humidity 97    
Minimum Humidity 78    
Precipitation  
Precipitation 0.12 in - - ()
Sea Level Pressure  
Sea Level Pressure 29.73 in    
Wind  
Wind Speed 6 mph (East)    
Max Wind Speed 10 mph    
Max Gust Speed 16 mph    
Visibility 8 miles    
Events Rain    
Averages and records for this station are not official NWS values.
T = Trace of Precipitation, MM = Missing Value Source: NWS Daily Summary

Daily Weather History Graph

Daily Weather History Graph

Search for Another Location

Airport or City:

Astronomy

May. 28, 2019 Rise Set
Actual Time 6:05 AM EDT 9:13 PM EDT
Civil Twilight 5:30 AM EDT 9:48 PM EDT
Nautical Twilight 4:46 AM EDT 10:32 PM EDT
Astronomical Twilight 3:52 AM EDT 11:26 PM EDT
Moon 3:32 AM EDT (5/28) 3:08 PM EDT (5/28)
Length of Visible Light 16h 17m
Length of Day
15h 07m
Waning Crescent, 32% of the Moon is Illuminated
May 28
Waning Crescent
Jun 3
New
Jun 10
First Quarter
Jun 17
Full
Jun 25
Last Quarter

Hourly Weather History & Observations

Time (EDT) Temp. Dew Point Humidity Pressure Visibility Wind Dir Wind Speed Gust Speed Precip Events Conditions
12:15 AM 53.4 °F 51.8 °F 94% 29.73 in 10.0 mi ESE 9.2 mph 12.7 mph N/A   Overcast
12:16 AM 53.6 °F 51.8 °F 94% 29.73 in 10.0 mi ESE 10.4 mph 16.1 mph N/A   Overcast
12:35 AM 53.6 °F 51.8 °F 94% 29.73 in 10.0 mi ESE 8.1 mph - N/A   Overcast
12:36 AM 53.6 °F 51.8 °F 94% 29.73 in 10.0 mi ESE 8.1 mph - N/A   Overcast
12:55 AM 53.8 °F 52.0 °F 94% 29.72 in 10.0 mi ESE 10.4 mph - N/A   Overcast
1:15 AM 54.0 °F 52.2 °F 94% 29.71 in 10.0 mi ESE 8.1 mph - N/A   Overcast
1:35 AM 54.0 °F 52.0 °F 93% 29.70 in 10.0 mi East 6.9 mph - N/A   Overcast
1:36 AM 54.0 °F 52.0 °F 93% 29.70 in 10.0 mi East 6.9 mph - N/A   Overcast
1:55 AM 54.0 °F 52.0 °F 93% 29.69 in 7.0 mi ESE 9.2 mph - N/A   Drizzle
2:15 AM 54.1 °F 52.2 °F 93% 29.68 in 10.0 mi East 8.1 mph - N/A   Overcast
2:35 AM 54.1 °F 52.2 °F 93% 29.67 in 10.0 mi East 5.8 mph - N/A Rain Light Rain
2:36 AM 54.1 °F 52.2 °F 93% 29.67 in 10.0 mi East 6.9 mph - 0.01 in Rain Light Rain
2:55 AM 54.0 °F 52.2 °F 94% 29.67 in 2.5 mi East 3.5 mph - 0.08 in   Overcast
3:15 AM 54.0 °F 52.3 °F 94% 29.67 in 7.0 mi East 4.6 mph - N/A Rain Rain
3:35 AM 53.8 °F 52.3 °F 95% 29.66 in 7.0 mi ENE 4.6 mph - 0.01 in Rain Light Rain
3:36 AM 53.8 °F 52.3 °F 95% 29.66 in 5.0 mi ENE 4.6 mph - 0.01 in Rain Light Rain
3:55 AM 53.6 °F 52.3 °F 95% 29.65 in 7.0 mi Calm Calm - 0.02 in   Light Drizzle
3:56 AM 53.6 °F 52.3 °F 95% 29.65 in 7.0 mi Calm Calm - 0.02 in   Drizzle
4:15 AM 53.6 °F 52.2 °F 95% 29.65 in 7.0 mi East 5.8 mph - 0.02 in Rain Rain
4:35 AM 53.6 °F 52.2 °F 95% 29.66 in 10.0 mi Calm Calm - 0.02 in   Overcast
4:55 AM 53.6 °F 52.2 °F 95% 29.65 in 10.0 mi ENE 5.8 mph - 0.02 in   Overcast
4:56 AM 53.6 °F 52.2 °F 95% 29.65 in 10.0 mi ENE 5.8 mph - 0.02 in   Overcast
5:15 AM 53.6 °F 52.3 °F 95% 29.66 in 10.0 mi East 8.1 mph - N/A   Overcast
5:35 AM 53.6 °F 52.2 °F 95% 29.66 in 10.0 mi East 5.8 mph - N/A   Overcast
5:55 AM 52.9 °F 51.4 °F 95% 29.67 in 10.0 mi ENE 4.6 mph - N/A   Overcast
5:56 AM 52.7 °F 51.3 °F 95% 29.67 in 10.0 mi ENE 5.8 mph - N/A   Overcast
6:15 AM 51.8 °F 50.5 °F 95% 29.66 in 7.0 mi ENE 5.8 mph - N/A   Overcast
6:35 AM 51.3 °F 50.0 °F 95% 29.67 in 4.0 mi ENE 5.8 mph - N/A   Overcast
6:55 AM 51.3 °F 50.2 °F 96% 29.66 in 5.0 mi East 4.6 mph - N/A   Overcast
7:15 AM 51.1 °F 50.0 °F 96% 29.66 in 4.0 mi East 4.6 mph - N/A   Overcast
7:16 AM 51.1 °F 50.0 °F 96% 29.66 in 4.0 mi East 4.6 mph - N/A   Overcast
7:35 AM 51.1 °F 50.0 °F 96% 29.67 in 4.0 mi East 4.6 mph - N/A   Overcast
7:55 AM 51.3 °F 50.2 °F 96% 29.69 in 3.0 mi East 5.8 mph - N/A   Overcast
8:15 AM 51.4 °F 50.4 °F 96% 29.68 in 1.5 mi East 4.6 mph - N/A   Overcast
8:16 AM 51.4 °F 50.5 °F 97% 29.68 in 1.5 mi East 4.6 mph - N/A   Overcast
8:35 AM 51.8 °F 50.9 °F 97% 29.68 in 1.2 mi East 5.8 mph - N/A   Overcast
8:36 AM 51.8 °F 50.9 °F 97% 29.68 in 1.5 mi East 6.9 mph - N/A   Overcast
8:55 AM 51.8 °F 50.9 °F 97% 29.69 in 2.0 mi ENE 4.6 mph - N/A   Overcast
9:15 AM 51.8 °F 50.9 °F 97% 29.70 in 2.0 mi ENE 6.9 mph - N/A   Overcast
9:16 AM 51.8 °F 50.9 °F 97% 29.69 in 2.0 mi ENE 6.9 mph - N/A   Overcast
9:35 AM 51.8 °F 50.9 °F 97% 29.69 in 1.8 mi ENE 5.8 mph - N/A   Overcast
9:55 AM 52.2 °F 51.3 °F 97% 29.71 in 1.5 mi East 3.5 mph - N/A   Overcast
9:56 AM 52.3 °F 51.4 °F 97% 29.71 in 1.5 mi East 3.5 mph - N/A   Overcast
10:15 AM 52.7 °F 51.8 °F 97% 29.71 in 1.8 mi East 5.8 mph - N/A   Overcast
10:35 AM 52.9 °F 52.0 °F 97% 29.71 in 2.0 mi East 5.8 mph - N/A   Overcast
10:36 AM 53.1 °F 52.0 °F 96% 29.71 in 2.0 mi East 5.8 mph - N/A   Overcast
10:55 AM 53.1 °F 52.0 °F 96% 29.73 in 2.5 mi Calm Calm - N/A   Overcast
10:56 AM 53.2 °F 52.2 °F 96% 29.74 in 2.5 mi East 3.5 mph - N/A   Overcast
11:15 AM 53.4 °F 52.2 °F 95% 29.75 in 3.0 mi East 3.5 mph - N/A   Overcast
11:35 AM 53.8 °F 52.7 °F 96% 29.75 in 3.0 mi ENE 4.6 mph - N/A   Overcast
11:55 AM 53.8 °F 52.7 °F 96% 29.75 in 3.0 mi NE 3.5 mph - N/A   Overcast
11:56 AM 53.8 °F 52.7 °F 96% 29.75 in 3.0 mi ENE 4.6 mph - N/A   Overcast
12:15 PM 54.5 °F 53.1 °F 95% 29.76 in 3.0 mi NE 4.6 mph - N/A   Light Drizzle
12:16 PM 54.5 °F 53.1 °F 95% 29.75 in 3.0 mi NE 4.6 mph - N/A   Light Drizzle
12:35 PM 55.6 °F 54.5 °F 96% 29.74 in 5.0 mi East 4.6 mph - N/A   Overcast
12:36 PM 55.8 °F 54.5 °F 96% 29.74 in 5.0 mi East 4.6 mph - N/A   Overcast
12:55 PM 55.8 °F 54.0 °F 94% 29.76 in 10.0 mi ENE 5.8 mph - N/A   Overcast
1:15 PM 56.8 °F 54.7 °F 92% 29.75 in 10.0 mi NNE 5.8 mph - N/A   Overcast
1:35 PM 57.6 °F 54.7 °F 90% 29.75 in 10.0 mi ENE 4.6 mph - N/A   Overcast
1:36 PM 57.6 °F 54.7 °F 90% 29.75 in 10.0 mi ENE 3.5 mph - N/A   Overcast
1:55 PM 57.7 °F 54.7 °F 90% 29.75 in 10.0 mi Calm Calm - N/A   Overcast
1:56 PM 57.9 °F 54.9 °F 90% 29.75 in 10.0 mi East 3.5 mph - N/A   Overcast
2:15 PM 58.3 °F 54.3 °F 87% 29.76 in 10.0 mi NE 5.8 mph - N/A   Overcast
2:35 PM 58.8 °F 54.5 °F 86% 29.77 in 10.0 mi NE 5.8 mph - N/A   Overcast
2:36 PM 58.6 °F 54.5 °F 86% 29.77 in 10.0 mi NE 6.9 mph - N/A   Overcast
2:55 PM 58.1 °F 54.5 °F 88% 29.78 in 10.0 mi NE 3.5 mph - N/A   Overcast
2:56 PM 58.1 °F 54.5 °F 88% 29.78 in 10.0 mi NNE 4.6 mph - N/A   Overcast
3:15 PM 58.3 °F 54.3 °F 87% 29.77 in 10.0 mi ENE 5.8 mph - N/A   Overcast
3:16 PM 58.5 °F 54.3 °F 86% 29.76 in 10.0 mi ENE 4.6 mph - N/A   Overcast
3:35 PM 59.0 °F 54.7 °F 86% 29.76 in 10.0 mi NE 8.1 mph - N/A   Overcast
3:55 PM 59.5 °F 54.3 °F 83% 29.77 in 10.0 mi ENE 4.6 mph - N/A   Overcast
3:56 PM 59.7 °F 54.3 °F 82% 29.77 in 10.0 mi NNE 5.8 mph - N/A   Overcast
4:15 PM 60.1 °F 54.3 °F 81% 29.77 in 10.0 mi Calm Calm - N/A   Overcast
4:35 PM 60.4 °F 54.5 °F 81% 29.78 in 10.0 mi Calm Calm - N/A   Overcast
4:36 PM 60.4 °F 54.5 °F 81% 29.78 in 10.0 mi Calm Calm - N/A   Overcast
4:55 PM 60.8 °F 54.1 °F 79% 29.77 in 10.0 mi Calm Calm - N/A   Overcast
5:15 PM 60.8 °F 54.3 °F 79% 29.77 in 10.0 mi East 3.5 mph - N/A   Overcast
5:35 PM 60.8 °F 54.5 °F 80% 29.76 in 10.0 mi NNW 5.8 mph - N/A   Overcast
5:55 PM 61.0 °F 55.0 °F 81% 29.74 in 10.0 mi NE 5.8 mph - N/A   Overcast
5:56 PM 61.2 °F 55.0 °F 80% 29.74 in 10.0 mi NE 5.8 mph - N/A   Overcast
6:15 PM 61.3 °F 54.7 °F 79% 29.73 in 10.0 mi ENE 4.6 mph - N/A   Overcast
6:35 PM 61.0 °F 54.3 °F 79% 29.73 in 10.0 mi NE 5.8 mph - N/A   Overcast
6:55 PM 61.0 °F 54.7 °F 80% 29.74 in 10.0 mi ENE 3.5 mph - N/A   Overcast
6:56 PM 61.2 °F 54.7 °F 79% 29.74 in 10.0 mi NE 4.6 mph - N/A   Overcast
7:15 PM 61.2 °F 54.5 °F 79% 29.76 in 10.0 mi Calm Calm - N/A   Overcast
7:16 PM 61.2 °F 54.5 °F 79% 29.76 in 10.0 mi East 3.5 mph - N/A   Overcast
7:35 PM 61.7 °F 54.7 °F 78% 29.76 in 10.0 mi ENE 3.5 mph - N/A   Overcast
7:55 PM 61.3 °F 54.5 °F 78% 29.76 in 10.0 mi East 3.5 mph - N/A   Overcast
7:56 PM 61.3 °F 54.5 °F 78% 29.76 in 10.0 mi East 4.6 mph - N/A   Overcast
8:15 PM 61.0 °F 54.0 °F 78% 29.75 in 10.0 mi ENE 3.5 mph - N/A   Overcast
8:16 PM 60.8 °F 54.0 °F 78% 29.75 in 10.0 mi Calm Calm - N/A   Overcast
8:35 PM 60.8 °F 54.5 °F 80% 29.76 in 10.0 mi Calm Calm - N/A   Overcast
8:36 PM 60.8 °F 54.7 °F 80% 29.76 in 10.0 mi Calm Calm - N/A   Overcast
8:55 PM 60.4 °F 54.7 °F 81% 29.76 in 10.0 mi Calm Calm - N/A   Overcast
9:15 PM 59.4 °F 55.4 °F 87% 29.77 in 10.0 mi Calm Calm - N/A   Overcast
9:35 PM 59.7 °F 55.9 °F 87% 29.78 in 10.0 mi Calm Calm - N/A   Overcast
9:36 PM 59.7 °F 55.9 °F 87% 29.79 in 10.0 mi Calm Calm - N/A   Overcast
9:55 PM 58.8 °F 55.8 °F 90% 29.80 in 10.0 mi Calm Calm - N/A   Overcast
10:15 PM 59.2 °F 55.8 °F 88% 29.79 in 10.0 mi SE 3.5 mph - N/A   Overcast
10:35 PM 59.0 °F 55.4 °F 88% 29.80 in 10.0 mi SE 3.5 mph - N/A   Overcast
10:36 PM 59.0 °F 55.4 °F 88% 29.80 in 10.0 mi SE 3.5 mph - N/A   Overcast
10:55 PM 59.0 °F 55.0 °F 87% 29.80 in 10.0 mi SE 3.5 mph - N/A   Overcast
11:15 PM 58.5 °F 54.7 °F 87% 29.80 in 10.0 mi Calm Calm - N/A   Overcast
11:35 PM 58.1 °F 54.7 °F 88% 29.80 in 10.0 mi Calm Calm - N/A   Overcast
11:55 PM 57.7 °F 54.5 °F 89% 29.79 in 10.0 mi ESE 5.8 mph - N/A   Overcast
11:56 PM 57.7 °F 54.5 °F 89% 29.79 in 10.0 mi ESE 6.9 mph - N/A   Overcast